TimePST,TemperatureF,Dew PointF,Humidity,Sea Level PressureIn,VisibilityMPH,Wind Direction,Wind SpeedMPH,Gust SpeedMPH,PrecipitationIn,Events,Conditions,WindDirDegrees,DateUTC
12:15 AM,35.6,33.8,93,30.13,10.0,West,3.5,-,N/A,,Mostly Cloudy,260,2013-03-04 08:15:00
12:35 AM,35.6,33.8,93,30.13,8.0,West,3.5,-,N/A,,Scattered Clouds,270,2013-03-04 08:35:00
12:55 AM,35.6,33.8,93,30.13,10.0,West,5.8,-,N/A,,Clear,280,2013-03-04 08:55:00
1:15 AM,35.6,32.0,87,30.14,7.0,West,3.5,-,N/A,,Clear,280,2013-03-04 09:15:00
1:35 AM,33.8,32.0,93,30.14,9.0,Calm,Calm,-,N/A,,Clear,0,2013-03-04 09:35:00
1:55 AM,33.8,32.0,93,30.15,10.0,Calm,Calm,-,N/A,,Clear,0,2013-03-04 09:55:00
2:15 AM,33.8,32.0,93,30.15,10.0,WNW,3.5,-,N/A,,Clear,290,2013-03-04 10:15:00
2:35 AM,32.0,32.0,100,30.15,10.0,Calm,Calm,-,N/A,,Clear,0,2013-03-04 10:35:00
2:55 AM,32.0,32.0,100,30.15,10.0,West,3.5,-,N/A,,Clear,270,2013-03-04 10:55:00
3:15 AM,32.0,32.0,100,30.15,10.0,WNW,4.6,-,N/A,,Clear,290,2013-03-04 11:15:00
3:35 AM,32.0,32.0,100,30.15,10.0,Calm,Calm,-,N/A,,Clear,0,2013-03-04 11:35:00
3:55 AM,32.0,32.0,100,30.15,10.0,Calm,Calm,-,N/A,,Scattered Clouds,0,2013-03-04 11:55:00
4:15 AM,32.0,32.0,100,30.15,10.0,Calm,Calm,-,N/A,,Overcast,0,2013-03-04 12:15:00
4:35 AM,32.0,32.0,100,30.14,10.0,Calm,Calm,-,N/A,,Overcast,0,2013-03-04 12:35:00
4:50 AM,33.8,32.0,93,30.15,10.0,WNW,3.5,-,N/A,,Overcast,290,2013-03-04 12:50:00
5:15 AM,35.6,32.0,87,30.14,10.0,West,3.5,-,N/A,,Overcast,280,2013-03-04 13:15:00
5:35 AM,35.6,33.8,93,30.15,10.0,Calm,Calm,-,N/A,,Overcast,0,2013-03-04 13:35:00
5:55 AM,35.6,33.8,93,30.15,10.0,Calm,Calm,-,N/A,,Overcast,0,2013-03-04 13:55:00
6:15 AM,35.6,33.8,93,30.15,10.0,Calm,Calm,-,N/A,,Overcast,0,2013-03-04 14:15:00
6:35 AM,35.6,33.8,93,30.15,10.0,Calm,Calm,-,N/A,,Overcast,0,2013-03-04 14:35:00
6:55 AM,37.4,35.6,93,30.15,10.0,Calm,Calm,-,N/A,,Overcast,0,2013-03-04 14:55:00
7:15 AM,37.4,35.6,93,30.16,10.0,Calm,Calm,-,N/A,,Overcast,0,2013-03-04 15:15:00
7:35 AM,37.4,35.6,93,30.16,10.0,Calm,Calm,-,N/A,,Overcast,0,2013-03-04 15:35:00
7:55 AM,39.2,35.6,87,30.16,10.0,Calm,Calm,-,N/A,,Overcast,0,2013-03-04 15:55:00
8:15 AM,39.2,35.6,87,30.17,10.0,Calm,Calm,-,N/A,,Overcast,0,2013-03-04 16:15:00
8:35 AM,41.0,35.6,81,30.16,10.0,Calm,Calm,-,N/A,,Overcast,0,2013-03-04 16:35:00
8:55 AM,41.0,37.4,87,30.16,10.0,Calm,Calm,-,N/A,,Overcast,0,2013-03-04 16:55:00
9:15 AM,41.0,37.4,87,30.16,10.0,Calm,Calm,-,N/A,,Overcast,0,2013-03-04 17:15:00
9:35 AM,42.8,37.4,81,30.16,10.0,Calm,Calm,-,N/A,,Overcast,0,2013-03-04 17:35:00
9:55 AM,46.4,37.4,71,30.16,10.0,ENE,3.5,-,N/A,,Overcast,60,2013-03-04 17:55:00
10:15 AM,48.2,37.4,66,30.15,10.0,NE,4.6,-,N/A,,Mostly Cloudy,50,2013-03-04 18:15:00
10:55 AM,50.0,37.4,62,30.14,10.0,East,3.5,-,N/A,,Clear,80,2013-03-04 18:55:00
11:15 AM,50.0,37.4,62,30.13,10.0,Calm,Calm,-,N/A,,Clear,0,2013-03-04 19:15:00
11:35 AM,53.6,37.4,54,30.12,10.0,Calm,Calm,-,N/A,,Clear,0,2013-03-04 19:35:00
11:55 AM,55.4,39.2,54,30.11,10.0,East,3.5,-,N/A,,Clear,90,2013-03-04 19:55:00
12:10 PM,55.4,39.2,54,30.11,10.0,SSE,4.6,-,N/A,,Clear,150,2013-03-04 20:10:00
12:35 PM,57.2,41.0,55,30.09,10.0,East,4.6,-,N/A,,Clear,100,2013-03-04 20:35:00
12:55 PM,59.0,37.4,45,30.08,10.0,SSE,6.9,-,N/A,,Scattered Clouds,150,2013-03-04 20:55:00
1:15 PM,59.0,37.4,45,30.07,10.0,SSE,8.1,-,N/A,,Partly Cloudy,160,2013-03-04 21:15:00
1:35 PM,59.0,35.6,42,30.06,10.0,SSE,6.9,-,N/A,,Clear,160,2013-03-04 21:35:00
1:55 PM,60.8,35.6,39,30.06,10.0,SSE,10.4,-,N/A,,Clear,150,2013-03-04 21:55:00
2:15 PM,60.8,37.4,42,30.05,10.0,South,10.4,-,N/A,,Clear,170,2013-03-04 22:15:00
2:35 PM,60.8,35.6,39,30.05,10.0,South,8.1,-,N/A,,Clear,180,2013-03-04 22:35:00
2:55 PM,59.0,35.6,42,30.05,10.0,SSE,6.9,-,N/A,,Clear,160,2013-03-04 22:55:00
3:15 PM,59.0,35.6,42,30.06,10.0,South,8.1,-,N/A,,Partly Cloudy,180,2013-03-04 23:15:00
3:35 PM,57.2,35.6,44,30.04,10.0,South,5.8,-,N/A,,Mostly Cloudy,190,2013-03-04 23:35:00
3:55 PM,57.2,39.2,51,30.04,10.0,SE,8.1,-,N/A,,Overcast,140,2013-03-04 23:55:00
4:15 PM,57.2,41.0,55,30.04,10.0,SE,5.8,-,N/A,,Overcast,140,2013-03-05 00:15:00
4:35 PM,55.4,41.0,58,30.04,10.0,SE,6.9,-,N/A,,Overcast,130,2013-03-05 00:35:00
4:55 PM,55.4,41.0,58,30.04,10.0,SE,5.8,-,N/A,,Overcast,140,2013-03-05 00:55:00
5:15 PM,55.4,41.0,58,30.04,10.0,SSE,6.9,-,N/A,,Overcast,160,2013-03-05 01:15:00
5:35 PM,53.6,41.0,62,30.04,10.0,SE,4.6,-,N/A,,Overcast,140,2013-03-05 01:35:00
5:55 PM,53.6,41.0,62,30.04,10.0,SSE,5.8,-,N/A,,Overcast,160,2013-03-05 01:55:00
6:15 PM,53.6,41.0,62,30.04,10.0,SSE,3.5,-,N/A,,Overcast,160,2013-03-05 02:15:00
6:35 PM,53.6,41.0,62,30.03,10.0,Calm,Calm,-,N/A,,Overcast,0,2013-03-05 02:35:00
6:55 PM,50.0,42.8,76,30.04,10.0,Calm,Calm,-,N/A,,Overcast,0,2013-03-05 02:55:00
7:15 PM,50.0,42.8,76,30.04,10.0,Calm,Calm,-,N/A,,Overcast,0,2013-03-05 03:15:00
7:35 PM,48.2,42.8,82,30.03,10.0,Calm,Calm,-,N/A,,Overcast,0,2013-03-05 03:35:00
7:55 PM,48.2,42.8,82,30.03,10.0,Calm,Calm,-,N/A,,Overcast,0,2013-03-05 03:55:00
8:15 PM,48.2,42.8,82,30.03,10.0,Calm,Calm,-,N/A,,Overcast,0,2013-03-05 04:15:00
8:35 PM,48.2,42.8,82,30.03,10.0,Calm,Calm,-,N/A,,Overcast,0,2013-03-05 04:35:00
8:55 PM,48.2,42.8,82,30.03,10.0,Calm,Calm,-,N/A,,Overcast,0,2013-03-05 04:55:00
9:15 PM,48.2,42.8,82,30.03,10.0,South,3.5,-,N/A,,Overcast,180,2013-03-05 05:15:00
9:35 PM,46.4,42.8,87,30.03,8.0,Calm,Calm,-,N/A,,Overcast,0,2013-03-05 05:35:00
9:55 PM,46.4,42.8,87,30.02,9.0,Calm,Calm,-,N/A,,Overcast,0,2013-03-05 05:55:00
10:35 PM,46.4,41.0,81,30.01,10.0,Calm,Calm,-,N/A,,Overcast,0,2013-03-05 06:35:00
10:55 PM,46.4,41.0,81,30.01,10.0,Calm,Calm,-,N/A,,Overcast,0,2013-03-05 06:55:00
11:15 PM,46.4,41.0,81,30.00,10.0,Calm,Calm,-,N/A,,Overcast,0,2013-03-05 07:15:00
11:30 PM,46.4,42.8,87,30.00,10.0,Calm,Calm,-,N/A,,Overcast,0,2013-03-05 07:30:00